[[{"header":{"parameterUnit":"m.s-1","parameterCategory":1,"la1":30.2991,"la2":30.254,"lo1":-89.0895,"lo2":-89.0444,"dy":0.0017,"dx":0.0017,"nx":28,"ny":28,"refTime":"2023-08-21T09:00:00:Z","depth":0,"parameterNumber":2,"parameterNumberName":"U-component_of_WINDS"},"data":[0,0,0,0,0,0,0,0,0,0,0,0,0,0,0,0,0,0,0,0,0,0,0,0,0,0,0,0,0,0,0,0,0,0,0,0,0,0,0,0,0,0,0,0,0,0,0,0,0,0,0,0,0,0,0,0,0,0,2.6731,2.6732,0,2.6784,2.6785,2.6785,2.6737,2.6735,2.6733,2.6731,2.6784,2.6787,2.679,0,0,0,0,0,0,0,0,0,0,0,0,0,2.6589,2.6592,2.6731,2.6732,2.6733,2.6784,2.6785,2.6785,2.6737,2.6735,2.6732,2.673,2.6783,2.6787,2.6791,0,0,0,0,0,0,0,0,0,0,0,0,0,2.6647,2.6593,2.6731,2.6715,2.6714,2.6784,2.6785,2.6786,2.6738,2.6735,2.6732,2.6729,2.6782,2.6786,2.6791,2.688,0,0,2.6806,2.6808,0,0,0,0,0,0,0,0,2.6644,2.6652,2.6717,2.6716,2.6715,2.6751,2.6754,2.6817,2.6738,2.6729,2.6731,2.6728,2.6775,2.678,2.6797,2.6882,2.6884,2.6806,2.6809,2.6811,2.6813,0,0,0,0,0,0,0,2.664,2.665,2.6752,2.6718,2.6717,2.6705,2.671,2.6766,2.6768,2.6729,2.6726,2.6733,2.6774,2.6792,2.6798,2.6885,2.6806,2.6811,2.6814,2.6815,2.7047,2.705,0,0,0,0,0,0,2.6638,2.6647,2.675,2.6754,2.6672,2.671,2.6715,2.6742,2.6767,2.6768,2.6735,2.673,2.6785,2.6792,2.6799,2.6905,2.6811,2.6816,2.6819,2.7044,2.7048,2.7051,0,0,0,0,0,0,2.6635,2.6647,2.6748,2.6699,2.6711,2.6715,2.6746,2.6745,2.6763,2.6771,2.6772,2.6753,2.6783,2.6792,2.686,2.6906,2.6818,2.6822,2.704,2.7045,2.705,2.7118,0,0,0,0,0,0,2.6631,2.6647,2.668,2.6701,2.6714,2.6809,2.6749,2.6748,2.6771,2.6765,2.6788,2.6789,2.6782,2.6853,2.6865,2.6911,2.6826,2.7036,2.7042,2.7048,2.7111,2.7124,2.7135,0,0,0,0,0,2.6626,2.6697,2.6682,2.6695,2.6756,2.6812,2.6819,2.6809,2.6775,2.6809,2.6815,2.6789,2.69,2.6861,2.6874,2.6922,2.7033,2.704,2.7047,2.7106,2.7122,2.7135,0,0,0,0,0,0,2.6681,2.6699,2.6683,2.6763,2.6786,2.6803,2.6846,2.6826,2.6859,2.6853,2.6838,2.6844,2.6916,2.6926,2.6882,2.701,2.6961,2.6971,2.7001,2.7016,2.7027,2.7024,2.683,0,0,0,0,0,2.6703,2.6747,2.676,2.6829,2.6841,2.6842,2.6865,2.6856,2.6879,2.6889,2.6899,2.6923,2.6963,2.699,2.7027,2.7112,2.7117,2.7152,2.7164,2.7174,2.7183,2.723,2.7246,2.7075,2.7075,2.7075,0,0,2.6748,2.6763,2.6791,2.684,2.6857,2.6903,2.685,2.69,2.6934,2.6896,2.6961,2.697,2.6995,2.7073,2.7107,2.7083,2.7231,2.7183,2.7191,2.7195,2.7239,2.7255,2.7269,2.708,2.7079,2.7079,0,0,2.6853,2.6869,2.6928,2.6947,2.6973,2.6973,2.6988,2.7008,2.7013,2.7078,2.7051,2.7091,2.716,2.718,2.7199,2.7313,2.729,2.7325,2.7388,2.7433,2.7447,2.7459,2.75,2.7515,2.7334,2.7334,2.7334,0,2.6905,2.6973,2.6961,2.7014,2.7036,2.7005,2.7066,2.7084,2.7121,2.7138,2.711,2.7197,2.7212,2.7294,2.7322,2.7338,2.7354,2.7322,2.7446,2.7458,2.7468,2.7507,2.7523,2.7338,2.7338,2.7337,2.7337,0,2.7036,2.7083,2.7128,2.7166,2.7194,2.725,2.7247,2.7277,2.7265,2.7268,2.7335,2.7352,2.7393,2.7412,2.74,2.7492,2.7476,2.7448,2.7398,2.7489,2.7525,2.754,2.7344,2.7343,2.7342,2.7341,0,0,2.7177,2.7208,2.7225,2.7242,2.727,2.7306,2.7361,2.7401,2.7427,2.7454,2.75,2.7561,2.7534,2.7556,2.7547,2.7587,2.7677,2.7553,2.7554,2.7576,2.778,2.7802,2.7819,2.7662,2.7665,2.7667,2.7778,0,2.7283,2.7379,2.7371,2.7462,2.7506,2.7477,2.7525,2.7548,2.7552,2.759,2.7595,2.7638,2.76,2.7613,2.7651,2.7658,2.7718,2.765,2.7705,2.7707,2.77,2.7838,2.7861,2.7965,2.7792,2.7794,2.7796,0,2.742,2.7453,2.7548,2.757,2.7588,2.7632,2.7668,2.7705,2.773,2.773,2.7756,2.774,2.7796,2.7745,2.7822,2.7776,2.7798,2.7805,2.7809,2.7814,2.7757,2.7847,2.7997,2.8013,2.7818,2.7817,2.7815,0,2.7514,2.7582,2.7648,2.7663,2.769,2.7722,2.7734,2.7756,2.7781,2.7814,2.783,2.7868,2.7889,2.7919,2.7914,2.7878,2.7993,2.7942,2.7995,2.7995,2.802,2.8019,2.8177,2.8035,2.8034,2.8034,2.8034,0,2.7634,2.7693,2.7691,2.7731,2.7798,2.7788,2.7853,2.7862,2.7882,2.7925,2.7902,2.7942,2.7933,2.7973,2.797,2.8034,2.8044,2.8046,2.8044,2.8048,2.8048,2.8062,2.8055,2.8038,2.8037,2.8036,2.8036,0,2.775,2.775,2.7821,2.7841,2.7847,2.7895,2.7912,2.7951,2.7954,2.8007,2.8019,2.8024,2.807,2.8068,2.812,2.8118,2.8198,2.8187,2.8189,2.8187,2.8241,2.8236,2.8414,2.8437,2.8279,2.8281,2.8282,0,2.7826,2.7872,2.7897,2.7924,2.7939,2.7982,2.8008,2.8,2.8028,2.806,2.8095,2.8139,2.8173,2.8248,2.8256,2.8296,2.8287,2.8346,2.8293,2.8295,2.8288,2.8286,2.829,2.8357,2.8359,2.836,2.8361,0,2.7962,2.7961,2.7999,2.8038,2.8069,2.8099,2.8126,2.815,2.8145,2.8177,2.8224,2.8251,2.8305,2.8349,2.8387,2.84,2.838,2.8378,2.8393,2.8397,2.8396,2.8398,2.8218,2.8374,2.8373,2.8372,2.8371,2.8371,2.8061,2.8101,2.8125,2.8168,2.8188,2.8215,2.8252,2.826,2.8299,2.8342,2.8335,2.8388,2.8412,2.8462,2.8479,2.852,2.8499,2.8519,2.8525,2.853,2.8536,2.839,2.8527,2.8526,2.8526,2.8526,2.8525,0,2.8197,2.8211,2.8251,2.8291,2.8325,2.8304,2.8333,2.8364,2.841,2.8435,2.847,2.8524,2.8567,2.8579,2.862,2.8651,2.8643,2.8662,2.8659,2.8663,2.8553,2.8536,2.8668,2.8668,2.8668,2.8668,2.8667,2.8667,2.8271,2.8337,2.8338,2.8413,2.8427,2.8479,2.8498,2.8522,2.8542,2.8603,2.8639,2.8647,2.8666,2.8709,2.8748,2.875,2.8766,2.8789,2.8788,2.8685,2.8671,2.8657,2.8641,2.8793,2.8793,2.8895,2.8896,2.8896]},{"header":{"parameterUnit":"m.s-1","parameterCategory":1,"la1":30.2991,"la2":30.254,"lo1":-89.0895,"lo2":-89.0444,"dy":0.0017,"dx":0.0017,"nx":28,"ny":28,"refTime":"2023-08-21T09:00:00:Z","depth":0,"parameterNumber":3,"parameterNumberName":"V-component_of_WINDS"},"data":[0,0,0,0,0,0,0,0,0,0,0,0,0,0,0,0,0,0,0,0,0,0,0,0,0,0,0,0,0,0,0,0,0,0,0,0,0,0,0,0,0,0,0,0,0,0,0,0,0,0,0,0,0,0,0,0,0,0,-1.6358,-1.6359,0,-1.6401,-1.6401,-1.6402,-1.6403,-1.6402,-1.6402,-1.6401,-1.6443,-1.6444,-1.6446,0,0,0,0,0,0,0,0,0,0,0,0,0,-1.6276,-1.6278,-1.6358,-1.6359,-1.6359,-1.64,-1.6401,-1.6402,-1.6403,-1.6402,-1.6402,-1.6401,-1.6442,-1.6444,-1.6446,0,0,0,0,0,0,0,0,0,0,0,0,0,-1.6315,-1.6278,-1.6358,-1.6365,-1.6366,-1.64,-1.6401,-1.6402,-1.6403,-1.6402,-1.6401,-1.6401,-1.6442,-1.6444,-1.6446,-1.6476,0,0,-1.6454,-1.6455,0,0,0,0,0,0,0,0,-1.6312,-1.6318,-1.6363,-1.6364,-1.6366,-1.6396,-1.6388,-1.6427,-1.6403,-1.6389,-1.6401,-1.64,-1.6428,-1.6431,-1.6441,-1.6478,-1.648,-1.6454,-1.6455,-1.6456,-1.6457,0,0,0,0,0,0,0,-1.631,-1.6316,-1.6375,-1.6364,-1.6365,-1.6365,-1.637,-1.6395,-1.6412,-1.639,-1.639,-1.6395,-1.6428,-1.6438,-1.6442,-1.6481,-1.6454,-1.6456,-1.6457,-1.6458,-1.6545,-1.6546,0,0,0,0,0,0,-1.6306,-1.6314,-1.6373,-1.6376,-1.6337,-1.6367,-1.6372,-1.6387,-1.6412,-1.6415,-1.6396,-1.6395,-1.6435,-1.6439,-1.6443,-1.648,-1.6456,-1.6458,-1.646,-1.6544,-1.6545,-1.6546,0,0,0,0,0,0,-1.6304,-1.6311,-1.6372,-1.6345,-1.6353,-1.637,-1.6386,-1.6388,-1.6398,-1.6416,-1.6419,-1.6403,-1.6434,-1.644,-1.6468,-1.6481,-1.646,-1.6462,-1.6543,-1.6545,-1.6546,-1.6554,0,0,0,0,0,0,-1.6302,-1.6311,-1.6323,-1.6345,-1.6354,-1.6397,-1.6386,-1.6389,-1.6403,-1.6402,-1.6424,-1.6427,-1.6434,-1.6465,-1.6471,-1.6484,-1.6464,-1.6542,-1.6544,-1.6545,-1.6552,-1.6555,-1.6557,0,0,0,0,0,-1.6299,-1.6323,-1.6323,-1.6331,-1.6369,-1.6397,-1.6402,-1.6411,-1.6404,-1.6416,-1.6427,-1.6426,-1.6479,-1.6468,-1.6474,-1.6489,-1.6541,-1.6543,-1.6545,-1.6551,-1.6554,-1.6557,0,0,0,0,0,0,-1.6301,-1.6326,-1.6327,-1.6359,-1.6376,-1.6398,-1.6413,-1.6414,-1.6433,-1.6432,-1.6441,-1.6446,-1.6474,-1.6484,-1.6471,-1.6519,-1.6509,-1.6513,-1.6511,-1.6515,-1.6517,-1.6514,-1.6466,0,0,0,0,0,-1.6305,-1.6326,-1.6347,-1.6373,-1.6382,-1.6396,-1.6408,-1.6413,-1.6431,-1.6438,-1.6452,-1.6469,-1.649,-1.6503,-1.6523,-1.6554,-1.6559,-1.6567,-1.657,-1.6572,-1.6574,-1.6592,-1.6596,-1.6553,-1.6553,-1.6553,0,0,-1.6313,-1.633,-1.6343,-1.6374,-1.6388,-1.6409,-1.6402,-1.6425,-1.644,-1.6442,-1.647,-1.648,-1.65,-1.653,-1.6544,-1.6539,-1.6587,-1.6574,-1.6576,-1.6577,-1.6594,-1.6598,-1.6602,-1.6554,-1.6554,-1.6554,0,0,-1.634,-1.6355,-1.6378,-1.6393,-1.6414,-1.6423,-1.6429,-1.6451,-1.6458,-1.6486,-1.6488,-1.6506,-1.6542,-1.6555,-1.6567,-1.6599,-1.6599,-1.6606,-1.6619,-1.6635,-1.6639,-1.6642,-1.6653,-1.6657,-1.6608,-1.6608,-1.6608,0,-1.6348,-1.638,-1.639,-1.6413,-1.6426,-1.6429,-1.6453,-1.6466,-1.6493,-1.6502,-1.6496,-1.6541,-1.6554,-1.6587,-1.6595,-1.6605,-1.6611,-1.6603,-1.6638,-1.6641,-1.6644,-1.6654,-1.6659,-1.6609,-1.6609,-1.6609,-1.6609,0,-1.6389,-1.6411,-1.6427,-1.6454,-1.6469,-1.6492,-1.6504,-1.6519,-1.6523,-1.6532,-1.6561,-1.6577,-1.6601,-1.6609,-1.6613,-1.6643,-1.6639,-1.6636,-1.6626,-1.6648,-1.6658,-1.6663,-1.661,-1.661,-1.6609,-1.6609,0,0,-1.6417,-1.6449,-1.6454,-1.6466,-1.6491,-1.6508,-1.6531,-1.6554,-1.6566,-1.6585,-1.6604,-1.6634,-1.6631,-1.6644,-1.6649,-1.6664,-1.6688,-1.6659,-1.6659,-1.6663,-1.6722,-1.6724,-1.6729,-1.6688,-1.6689,-1.669,-1.672,0,-1.6445,-1.6487,-1.6496,-1.6532,-1.6553,-1.6556,-1.6576,-1.6593,-1.6603,-1.6622,-1.6632,-1.6653,-1.6648,-1.6656,-1.6671,-1.6682,-1.67,-1.668,-1.6706,-1.6707,-1.67,-1.6734,-1.6736,-1.6764,-1.6724,-1.6725,-1.6725,0,-1.6484,-1.6504,-1.6542,-1.6564,-1.6573,-1.6591,-1.6613,-1.6631,-1.665,-1.6656,-1.6671,-1.6675,-1.6699,-1.6688,-1.6721,-1.6707,-1.6718,-1.6726,-1.6727,-1.6729,-1.6717,-1.6737,-1.6773,-1.6777,-1.6732,-1.6731,-1.6731,0,-1.6501,-1.6537,-1.6564,-1.6575,-1.6601,-1.6613,-1.6624,-1.6643,-1.6656,-1.6676,-1.6684,-1.6706,-1.6717,-1.6734,-1.6743,-1.6735,-1.6775,-1.6765,-1.678,-1.678,-1.6788,-1.6787,-1.6826,-1.6796,-1.6796,-1.6796,-1.6796,0,-1.6531,-1.6554,-1.6572,-1.6589,-1.6614,-1.6625,-1.665,-1.6661,-1.6677,-1.6696,-1.67,-1.6718,-1.6729,-1.6748,-1.6756,-1.6781,-1.6787,-1.6792,-1.6793,-1.6791,-1.679,-1.6798,-1.6796,-1.6797,-1.6797,-1.6797,-1.6796,0,-1.6554,-1.6567,-1.6596,-1.6619,-1.6625,-1.6643,-1.6662,-1.6678,-1.6688,-1.6712,-1.6718,-1.6734,-1.6756,-1.6767,-1.6795,-1.68,-1.6829,-1.683,-1.6823,-1.6823,-1.6837,-1.6836,-1.6882,-1.6889,-1.6854,-1.6855,-1.6855,0,-1.6572,-1.659,-1.6615,-1.6628,-1.664,-1.6661,-1.6675,-1.6685,-1.67,-1.6723,-1.6736,-1.6759,-1.6778,-1.6813,-1.6827,-1.6848,-1.6849,-1.6864,-1.6852,-1.6849,-1.6849,-1.6847,-1.6849,-1.6866,-1.6866,-1.6866,-1.6866,0,-1.6604,-1.6609,-1.663,-1.6652,-1.6669,-1.6687,-1.6705,-1.6715,-1.6729,-1.6745,-1.6768,-1.6783,-1.6811,-1.6834,-1.6856,-1.6867,-1.6869,-1.687,-1.6875,-1.6872,-1.6867,-1.687,-1.6828,-1.6869,-1.6869,-1.6868,-1.6868,-1.6868,-1.6625,-1.6641,-1.6661,-1.6683,-1.6698,-1.6714,-1.6731,-1.6743,-1.6763,-1.6787,-1.6793,-1.6817,-1.6836,-1.6866,-1.6878,-1.6897,-1.6894,-1.69,-1.6902,-1.6903,-1.6904,-1.6865,-1.6901,-1.6901,-1.6901,-1.6901,-1.6901,0,-1.6656,-1.6669,-1.669,-1.6715,-1.6733,-1.6734,-1.6753,-1.6768,-1.679,-1.6807,-1.6826,-1.6852,-1.6874,-1.689,-1.6912,-1.6924,-1.6926,-1.693,-1.6928,-1.6931,-1.6906,-1.6899,-1.6928,-1.6928,-1.6928,-1.6928,-1.6928,-1.6928,-1.6675,-1.6702,-1.671,-1.6744,-1.6757,-1.6781,-1.6793,-1.6808,-1.6822,-1.6852,-1.687,-1.688,-1.6897,-1.692,-1.694,-1.6944,-1.6952,-1.6956,-1.696,-1.6936,-1.6933,-1.693,-1.6924,-1.6958,-1.6958,-1.6984,-1.6984,-1.6984]}]]